OneWeb SL0370

operational
NORAD ID: 49296 Int'l Des: 2021-090 Owner: ONEWEBN Country: UK Constellation: oneweb
LEOCIRCULARPOLARONEWEB_TYPE

About OneWeb SL0370

Description loading...

Live Position

Loading 3D Globe...

Upcoming Passes

Altitude History

Altitude vs Time

uPlot chart will show altitude changes over time

Two-Line Element Set

1 49296U 21090T 25305.44762287 .00000055 00000-0 10318-3 0 9993
2 49296 87.9190 319.8627 0002124 85.8055 274.3321 13.20772150199809
Epoch: Nov 1, 2025 • Age: 16 hours

Current Status

Altitude 1212.2 km
Velocity 7.25 km/s
Sub-Earth Point -86.88°S, 100.08°E
Launch Date Oct 14, 2021
Age 4 years
Type internet

Technical Details

Classification Payload
Mass 148.00 kg
Dry Mass 140.00 kg
Total Mass 148.00 kg
Length 1.30 m
Diameter 1.00 m
Span 5.00 m
Shape Trapezoid+2 pan
Manufacturer ONEWUS
Bus Type ARROW
Phase Status In Orbit
Owner/State ONEWEBN/UK

Large Constellations

Loading constellations...